,,Stat5,,Stat1,,Stat2,,Stat3,,Stat4,,Wind1,,Wind1,
time,status,PA1M_AVG,status,PR1M_SUM,status,RH1M_AVG,status,SR1M_AVG,status,TA1M_AVG,status,W1dAve1m,status,W1sAve1m,
2001-07-17, 00:00:00,VALID,919.104,VALID,0,VALID,98.2238,VALID,0,VALID,18.3758,VALID,131,VALID,0,
2001-07-17, 00:01:00,VALID,919.095,VALID,0,VALID,97.6351,VALID,-0.0339617,VALID,18.3202,VALID,131,VALID,0,
2001-07-17, 00:02:01,VALID,919.082,VALID,0,VALID,97.5817,VALID,0,VALID,18.2881,VALID,131,VALID,0,
2001-07-17, 00:03:01,VALID,919.07,VALID,0,VALID,96.8785,VALID,0.0169808,VALID,18.2104,VALID,110,VALID,0,
2001-07-17, 00:04:00,VALID,919.047,VALID,0,VALID,95.013,VALID,-0.0169808,VALID,17.9722,VALID,66,VALID,0,
2001-07-17, 00:05:01,VALID,919.037,VALID,0,VALID,94.6277,VALID,-0.0169808,VALID,17.7457,VALID,52,VALID,0,
2001-07-17, 00:06:01,VALID,919.029,VALID,0,VALID,95.0715,VALID,0,VALID,17.6721,VALID,32,VALID,0.00175781,
2001-07-17, 00:07:00,VALID,919.014,VALID,0,VALID,96.118,VALID,-0.0339617,VALID,17.6035,VALID,10,VALID,0.87832,
2001-07-17, 00:08:00,VALID,919.012,VALID,0,VALID,97.4342,VALID,-0.0169808,VALID,17.7137,VALID,360,VALID,0.763822,
2001-07-17, 00:09:00,VALID,918.998,VALID,0,VALID,97.6783,VALID,0.0169808,VALID,17.7393,VALID,8,VALID,0.583008,
2001-07-17, 00:10:00,VALID,918.993,VALID,0,VALID,97.5562,VALID,0,VALID,17.7227,VALID,12,VALID,0.636328,
2001-07-17, 00:11:01,VALID,918.988,VALID,0,VALID,97.7521,VALID,0,VALID,17.7261,VALID,20,VALID,0.790963,
2001-07-17, 00:12:00,VALID,918.969,VALID,0,VALID,97.7571,VALID,-0.0169808,VALID,17.736,VALID,29,VALID,0.556641,
2001-07-17, 00:13:01,VALID,918.969,VALID,0,VALID,97.7228,VALID,-0.0339617,VALID,17.7298,VALID,30,VALID,0.417773,
2001-07-17, 00:14:01,VALID,918.962,VALID,0,VALID,97.8195,VALID,-0.0509425,VALID,17.7365,VALID,31,VALID,0.334852,
2001-07-17, 00:15:00,VALID,918.954,VALID,0,VALID,97.9619,VALID,-0.0339617,VALID,17.7755,VALID,31,VALID,0.272436,
2001-07-17, 00:16:01,VALID,918.965,VALID,0,VALID,97.9212,VALID,0,VALID,17.7916,VALID,31,VALID,0.162543,
2001-07-17, 00:17:00,VALID,918.949,VALID,0,VALID,97.8423,VALID,-0.0169808,VALID,17.7881,VALID,31,VALID,0.188086,
2001-07-17, 00:18:00,VALID,918.928,VALID,0,VALID,97.663,VALID,0,VALID,17.7621,VALID,31,VALID,0.256696,
2001-07-17, 00:19:01,VALID,918.896,VALID,0,VALID,97.5308,VALID,-0.0169808,VALID,17.733,VALID,31,VALID,0.271959,
2001-07-17, 00:20:00,VALID,918.873,VALID,0,VALID,97.6618,VALID,0,VALID,17.7141,VALID,34,VALID,0.25293,
2001-07-17, 00:21:01,VALID,918.835,VALID,0,VALID,97.7101,VALID,-0.0339617,VALID,17.704,VALID,38,VALID,0.248047,
2001-07-17, 00:22:01,VALID,918.814,VALID,0,VALID,97.5829,VALID,0,VALID,17.6749,VALID,39,VALID,0.246995,
2001-07-17, 00:23:01,VALID,918.788,VALID,0,VALID,97.5054,VALID,-0.0169808,VALID,17.6233,VALID,39,VALID,0.24977,
2001-07-17, 00:24:00,VALID,918.764,VALID,0,VALID,97.541,VALID,-0.0509425,VALID,17.5942,VALID,39,VALID,0.297768,
2001-07-17, 00:25:01,VALID,918.744,VALID,0,VALID,97.5728,VALID,-0.0679233,VALID,17.588,VALID,39,VALID,0.041266,
2001-07-17, 00:26:00,VALID,918.747,VALID,0,VALID,97.4914,VALID,-0.0169808,VALID,17.5391,VALID,39,VALID,0,
2001-07-17, 00:27:00,VALID,918.742,VALID,0,VALID,97.4825,VALID,0,VALID,17.5137,VALID,39,VALID,0,
2001-07-17, 00:28:00,VALID,918.754,VALID,0,VALID,97.6516,VALID,0.101885,VALID,17.4965,VALID,39,VALID,0,
2001-07-17, 00:29:00,VALID,918.744,VALID,0,VALID,97.9225,VALID,0.0679233,VALID,17.4958,VALID,39,VALID,0,
2001-07-17, 00:30:01,VALID,918.755,VALID,0,VALID,98.1196,VALID,0.101885,VALID,17.5445,VALID,39,VALID,0,
2001-07-17, 00:31:01,VALID,918.76,VALID,0,VALID,98.1386,VALID,0.101885,VALID,17.5703,VALID,39,VALID,0,
2001-07-17, 00:32:01,VALID,918.752,VALID,0,VALID,98.0878,VALID,0.101885,VALID,17.5933,VALID,39,VALID,0,
2001-07-17, 00:33:01,VALID,918.736,VALID,0,VALID,98.1183,VALID,0.0849042,VALID,17.5832,VALID,39,VALID,0,
2001-07-17, 00:34:01,VALID,918.724,VALID,0,VALID,98.3395,VALID,0.101885,VALID,17.6222,VALID,39,VALID,0,
2001-07-17, 00:35:01,VALID,918.69,VALID,0,VALID,98.3395,VALID,0.0849042,VALID,17.6676,VALID,39,VALID,0,
2001-07-17, 00:36:01,VALID,918.665,VALID,0,VALID,97.6452,VALID,0.101885,VALID,17.5996,VALID,39,VALID,0,
2001-07-17, 00:37:01,VALID,918.632,VALID,0,VALID,97.0679,VALID,0.0849042,VALID,17.444,VALID,39,VALID,0,
2001-07-17, 00:38:01,VALID,918.607,VALID,0,VALID,96.9204,VALID,0.101885,VALID,17.3803,VALID,39,VALID,0,
2001-07-17, 00:39:01,VALID,918.598,VALID,0,VALID,97.0845,VALID,0.0679233,VALID,17.3641,VALID,39,VALID,0,
2001-07-17, 00:40:01,VALID,918.578,VALID,0,VALID,97.2803,VALID,0.0849042,VALID,17.3639,VALID,39,VALID,0,
2001-07-17, 00:41:01,VALID,918.563,VALID,0,VALID,97.5537,VALID,0.101885,VALID,17.3962,VALID,39,VALID,0,
2001-07-17, 00:42:01,VALID,918.559,VALID,0,VALID,97.4939,VALID,0.0509425,VALID,17.3637,VALID,39,VALID,0,
2001-07-17, 00:43:01,VALID,918.55,VALID,0,VALID,97.6821,VALID,-0.0169808,VALID,17.4076,VALID,39,VALID,0,
2001-07-17, 00:44:01,VALID,918.536,VALID,0,VALID,97.8042,VALID,0,VALID,17.4042,VALID,41,VALID,0,
2001-07-17, 00:45:01,VALID,918.532,VALID,0,VALID,97.8118,VALID,-0.0509425,VALID,17.3913,VALID,41,VALID,0,
2001-07-17, 00:46:01,VALID,918.552,VALID,0,VALID,98.1666,VALID,-0.0169808,VALID,17.4203,VALID,41,VALID,0,
2001-07-17, 00:47:01,VALID,918.563,VALID,0,VALID,98.4985,VALID,-0.0339617,VALID,17.5079,VALID,41,VALID,0.181691,
2001-07-17, 00:48:01,VALID,918.566,VALID,0,VALID,98.6969,VALID,-0.0169808,VALID,17.611,VALID,50,VALID,0.335547,
2001-07-17, 00:49:01,VALID,918.578,VALID,0,VALID,98.7795,VALID,-0.0849042,VALID,17.7044,VALID,60,VALID,0.451116,
2001-07-17, 00:50:01,VALID,918.584,VALID,0,VALID,98.7032,VALID,-0.0679233,VALID,17.7526,VALID,60,VALID,0.603885,
2001-07-17, 00:51:01,VALID,918.586,VALID,0,VALID,98.3815,VALID,-0.0169808,VALID,17.7266,VALID,60,VALID,0.534237,
2001-07-17, 00:52:01,VALID,918.577,VALID,0,VALID,97.7419,VALID,-0.0339617,VALID,17.5974,VALID,60,VALID,0.383929,
2001-07-17, 00:53:01,VALID,918.574,VALID,0,VALID,97.2142,VALID,0,VALID,17.4881,VALID,60,VALID,0.105569,
2001-07-17, 00:54:01,VALID,918.565,VALID,0,VALID,96.7526,VALID,-0.0339617,VALID,17.3715,VALID,50,VALID,0,
2001-07-17, 00:55:01,VALID,918.542,VALID,0,VALID,96.8378,VALID,-0.0339617,VALID,17.3166,VALID,10,VALID,0.17023,
2001-07-17, 00:56:00,VALID,918.539,VALID,0,VALID,97.5461,VALID,0,VALID,17.3908,VALID,351,VALID,0.281027,
2001-07-17, 00:57:00,VALID,918.531,VALID,0,VALID,97.5728,VALID,-0.0169808,VALID,17.4042,VALID,351,VALID,0,
2001-07-17, 00:58:00,VALID,918.53,VALID,0,VALID,97.9492,VALID,0.0339617,VALID,17.4713,VALID,351,VALID,0.0935133,
2001-07-17, 00:59:00,VALID,918.535,VALID,0,VALID,98.2137,VALID,0,VALID,17.5458,VALID,351,VALID,0,
2001-07-17, 01:00:00,VALID,918.526,VALID,0,VALID,98.2149,VALID,0.0169808,VALID,17.5589,VALID,14,VALID,0.0869655,
2001-07-17, 01:01:00,VALID,918.532,VALID,0,VALID,98.3179,VALID,0,VALID,17.5977,VALID,349,VALID,0.0713141,
2001-07-17, 01:02:00,VALID,918.525,VALID,0,VALID,98.4692,VALID,0.0169808,VALID,17.6625,VALID,7,VALID,0.293359,
2001-07-17, 01:03:00,VALID,918.5,VALID,0,VALID,98.6625,VALID,0,VALID,17.7821,VALID,37,VALID,0.739509,
2001-07-17, 01:04:00,VALID,918.467,VALID,0,VALID,98.6066,VALID,0.0339617,VALID,17.8232,VALID,32,VALID,0.764358,
2001-07-17, 01:05:00,VALID,918.425,VALID,0,VALID,98.3917,VALID,0.0169808,VALID,17.8329,VALID,31,VALID,0.79136,
2001-07-17, 01:06:00,VALID,918.408,VALID,0,VALID,98.1971,VALID,0.0339617,VALID,17.8589,VALID,21,VALID,0.896429,
2001-07-17, 01:07:00,VALID,918.382,VALID,0,VALID,97.953,VALID,0.0509425,VALID,17.849,VALID,19,VALID,1.07933,
2001-07-17, 01:08:00,VALID,918.354,VALID,0,VALID,97.8792,VALID,0.0169808,VALID,17.8684,VALID,19,VALID,0.901182,
2001-07-17, 01:09:00,VALID,918.31,VALID,0,VALID,97.78,VALID,0.0169808,VALID,17.865,VALID,15,VALID,1.23273,
2001-07-17, 01:10:00,VALID,918.284,VALID,0,VALID,98.2187,VALID,0.0339617,VALID,17.9846,VALID,19,VALID,1.26696,
2001-07-17, 01:11:00,VALID,918.258,VALID,0,VALID,98.3751,VALID,0.0679233,VALID,18.1106,VALID,19,VALID,1.20453,
2001-07-17, 01:12:00,VALID,918.246,VALID,0,VALID,98.1475,VALID,0.0509425,VALID,18.1977,VALID,12,VALID,0.882102,
2001-07-17, 01:13:00,VALID,918.232,VALID,0,VALID,97.9377,VALID,-0.0509425,VALID,18.2572,VALID,10,VALID,0.804905,
2001-07-17, 01:14:00,VALID,918.228,VALID,0,VALID,97.7978,VALID,-0.0679233,VALID,18.3218,VALID,10,VALID,1.07771,
2001-07-17, 01:15:00,VALID,918.204,VALID,0,VALID,97.7889,VALID,-0.0679233,VALID,18.3961,VALID,12,VALID,1.29046,
2001-07-17, 01:16:00,VALID,918.175,VALID,0,VALID,97.663,VALID,-0.0339617,VALID,18.48,VALID,13,VALID,1.15352,
2001-07-17, 01:17:00,VALID,918.165,VALID,0,VALID,97.1811,VALID,-0.0339617,VALID,18.4826,VALID,15,VALID,1.06049,
2001-07-17, 01:18:00,VALID,918.143,VALID,0,VALID,97.2027,VALID,-0.0509425,VALID,18.5442,VALID,17,VALID,1.13915,
2001-07-17, 01:19:00,VALID,918.143,VALID,0,VALID,96.586,VALID,-0.0849042,VALID,18.5474,VALID,17,VALID,0.865119,
2001-07-17, 01:20:00,VALID,918.143,VALID,0,VALID,96.1346,VALID,-0.0509425,VALID,18.5153,VALID,20,VALID,0.667188,
2001-07-17, 01:21:00,VALID,918.138,VALID,0,VALID,96.0786,VALID,-0.0509425,VALID,18.5027,VALID,7,VALID,0.65004,
2001-07-17, 01:22:00,VALID,918.143,VALID,0,VALID,96.0926,VALID,-0.0679233,VALID,18.4927,VALID,360,VALID,0.516258,
2001-07-17, 01:23:00,VALID,918.137,VALID,0,VALID,96.497,VALID,-0.0339617,VALID,18.5278,VALID,336,VALID,0.479852,
2001-07-17, 01:24:00,VALID,918.127,VALID,0,VALID,96.792,VALID,-0.0169808,VALID,18.5891,VALID,247,VALID,0.678795,
2001-07-17, 01:25:00,VALID,918.106,VALID,0,VALID,96.7386,VALID,-0.0339617,VALID,18.6122,VALID,266,VALID,0.451723,
2001-07-17, 01:26:00,VALID,918.073,VALID,0,VALID,96.75,VALID,-0.0679233,VALID,18.6344,VALID,288,VALID,0.671165,
2001-07-17, 01:27:00,VALID,918.057,VALID,0,VALID,96.7081,VALID,-0.0339617,VALID,18.6505,VALID,268,VALID,0.555339,
2001-07-17, 01:28:00,VALID,918.044,VALID,0,VALID,96.6191,VALID,0.0509425,VALID,18.6426,VALID,277,VALID,0.179482,
2001-07-17, 01:29:00,VALID,918.031,VALID,0,VALID,96.5402,VALID,0.0339617,VALID,18.6588,VALID,232,VALID,0.11258,
2001-07-17, 01:30:00,VALID,918.025,VALID,0,VALID,96.2312,VALID,0.0339617,VALID,18.6196,VALID,230,VALID,0.281641,
2001-07-17, 01:31:00,VALID,918.005,VALID,0,VALID,96.324,VALID,0.0509425,VALID,18.6198,VALID,238,VALID,0.261161,
2001-07-17, 01:32:00,VALID,917.982,VALID,0,VALID,96.4092,VALID,0.0509425,VALID,18.6196,VALID,240,VALID,0.0304054,
2001-07-17, 01:33:00,VALID,917.952,VALID,0,VALID,96.221,VALID,0.0169808,VALID,18.6133,VALID,240,VALID,0,
2001-07-17, 01:34:00,VALID,917.943,VALID,0,VALID,96.0201,VALID,0.0679233,VALID,18.5684,VALID,240,VALID,0,
2001-07-17, 01:35:00,VALID,917.927,VALID,0,VALID,96.1842,VALID,0.0339617,VALID,18.549,VALID,240,VALID,0,
2001-07-17, 01:36:00,VALID,917.908,VALID,0,VALID,96.4118,VALID,0.0509425,VALID,18.5617,VALID,240,VALID,0,
2001-07-17, 01:37:00,VALID,917.929,VALID,0,VALID,96.4029,VALID,0.0339617,VALID,18.5649,VALID,235,VALID,0.235197,
2001-07-17, 01:38:00,VALID,917.922,VALID,0,VALID,96.2961,VALID,0.0679233,VALID,18.5485,VALID,213,VALID,0.0352679,
2001-07-17, 01:39:00,VALID,917.935,VALID,0,VALID,96.2986,VALID,0.0339617,VALID,18.516,VALID,184,VALID,0.521234,
2001-07-17, 01:40:00,VALID,917.936,VALID,0,VALID,96.2859,VALID,0.0509425,VALID,18.4971,VALID,170,VALID,0.700047,
2001-07-17, 01:41:00,VALID,917.911,VALID,0,VALID,96.5262,VALID,0.0339617,VALID,18.4678,VALID,167,VALID,0.663194,
2001-07-17, 01:42:00,VALID,917.901,VALID,0,VALID,96.6267,VALID,0.0339617,VALID,18.4445,VALID,168,VALID,0.700658,
2001-07-17, 01:43:00,VALID,917.872,VALID,0,VALID,96.3482,VALID,0.0509425,VALID,18.4095,VALID,149,VALID,0.647636,
2001-07-17, 01:44:00,VALID,917.837,VALID,0,VALID,96.3139,VALID,0.0679233,VALID,18.3389,VALID,104,VALID,0.373242,
2001-07-17, 01:45:00,VALID,917.821,VALID,0,VALID,96.5479,VALID,0.0509425,VALID,18.287,VALID,139,VALID,0.539732,
2001-07-17, 01:46:00,VALID,917.804,VALID,0,VALID,96.853,VALID,0.0339617,VALID,18.2842,VALID,123,VALID,0.44848,
2001-07-17, 01:47:00,VALID,917.807,VALID,0,VALID,97.0629,VALID,0.0679233,VALID,18.2778,VALID,136,VALID,0.535386,
2001-07-17, 01:48:00,VALID,917.79,VALID,0,VALID,97.3871,VALID,0.0509425,VALID,18.3008,VALID,145,VALID,0.846875,
2001-07-17, 01:49:00,VALID,917.775,VALID,0,VALID,97.4227,VALID,0.0339617,VALID,18.3066,VALID,141,VALID,0.472155,
2001-07-17, 01:50:00,VALID,917.782,VALID,0,VALID,97.3718,VALID,0.0849042,VALID,18.3036,VALID,156,VALID,0.526182,
2001-07-17, 01:51:00,VALID,917.765,VALID,0,VALID,97.2485,VALID,0.0339617,VALID,18.2838,VALID,148,VALID,0.343133,
2001-07-17, 01:52:00,VALID,917.755,VALID,0,VALID,96.8861,VALID,0.0849042,VALID,18.2323,VALID,127,VALID,0.0975446,
2001-07-17, 01:53:00,VALID,917.746,VALID,0,VALID,96.9103,VALID,0.0509425,VALID,18.1512,VALID,105,VALID,0.180489,
2001-07-17, 01:54:00,VALID,917.73,VALID,0,VALID,97.143,VALID,0.0849042,VALID,18.1516,VALID,78,VALID,0.463778,
2001-07-17, 01:55:00,VALID,917.739,VALID,0,VALID,97.2015,VALID,0.0169808,VALID,18.1223,VALID,68,VALID,0.613932,
2001-07-17, 01:56:00,VALID,917.733,VALID,0,VALID,97.3388,VALID,0.0339617,VALID,18.1223,VALID,70,VALID,0.518914,
2001-07-17, 01:57:00,VALID,917.751,VALID,0,VALID,97.658,VALID,0.0169808,VALID,18.1292,VALID,94,VALID,0.880609,
2001-07-17, 01:58:00,VALID,917.747,VALID,0,VALID,97.8538,VALID,0,VALID,18.1712,VALID,100,VALID,0.711719,
2001-07-17, 01:59:00,VALID,917.75,VALID,0,VALID,97.8601,VALID,0,VALID,18.1744,VALID,126,VALID,0.377679,
2001-07-17, 02:00:00,VALID,917.747,VALID,0,VALID,97.7292,VALID,0.0339617,VALID,18.1548,VALID,127,VALID,0.48902,
2001-07-17, 02:01:00,VALID,917.706,VALID,0,VALID,97.5321,VALID,0.0169808,VALID,18.0995,VALID,144,VALID,0.804458,
2001-07-17, 02:02:00,VALID,917.679,VALID,0,VALID,97.354,VALID,0.0339617,VALID,18.0518,VALID,149,VALID,1.27768,
2001-07-17, 02:03:00,VALID,917.662,VALID,0,VALID,97.1836,VALID,0.0339617,VALID,17.984,VALID,153,VALID,1.34575,
2001-07-17, 02:04:00,VALID,917.632,VALID,0,VALID,97.1544,VALID,0.0339617,VALID,17.8901,VALID,152,VALID,1.11022,
2001-07-17, 02:05:00,VALID,917.625,VALID,0,VALID,97.2307,VALID,0.0509425,VALID,17.793,VALID,133,VALID,0.82284,
2001-07-17, 02:06:00,VALID,917.625,VALID,0,VALID,97.3528,VALID,0.0509425,VALID,17.7513,VALID,132,VALID,0.93125,
2001-07-17, 02:07:00,VALID,917.631,VALID,0,VALID,97.8233,VALID,0.0509425,VALID,17.7352,VALID,130,VALID,1.17388,
2001-07-17, 02:08:00,VALID,917.65,VALID,0,VALID,98.3141,VALID,0.0339617,VALID,17.7776,VALID,125,VALID,1.15767,
2001-07-17, 02:09:00,VALID,917.67,VALID,0,VALID,98.5252,VALID,0.0169808,VALID,17.8318,VALID,116,VALID,1.2283,
2001-07-17, 02:10:00,VALID,917.663,VALID,0,VALID,98.632,VALID,0,VALID,17.8742,VALID,120,VALID,1.42085,
2001-07-17, 02:11:00,VALID,917.668,VALID,0,VALID,98.7121,VALID,0,VALID,17.9388,VALID,120,VALID,1.47035,
2001-07-17, 02:12:00,VALID,917.651,VALID,0,VALID,98.6091,VALID,-0.0169808,VALID,17.9554,VALID,116,VALID,1.21777,
2001-07-17, 02:13:00,VALID,917.637,VALID,0,VALID,98.6727,VALID,-0.0849042,VALID,17.9722,VALID,107,VALID,1.1779,
2001-07-17, 02:14:00,VALID,917.603,VALID,0,VALID,98.6676,VALID,-0.0679233,VALID,18.0245,VALID,103,VALID,1.25063,
2001-07-17, 02:15:00,VALID,917.584,VALID,0,VALID,98.618,VALID,-0.0849042,VALID,18.0437,VALID,106,VALID,1.23185,
2001-07-17, 02:16:00,VALID,917.567,VALID,0,VALID,98.5087,VALID,-0.0679233,VALID,18.0665,VALID,104,VALID,1.03549,
2001-07-17, 02:17:00,VALID,917.549,VALID,0,VALID,98.468,VALID,-0.101885,VALID,18.0594,VALID,112,VALID,1.09235,
2001-07-17, 02:18:00,VALID,917.56,VALID,0,VALID,98.2925,VALID,-0.101885,VALID,18.0727,VALID,107,VALID,0.958826,
2001-07-17, 02:19:00,VALID,917.558,VALID,0,VALID,98.2404,VALID,-0.101885,VALID,18.0564,VALID,112,VALID,1.13137,
2001-07-17, 02:20:00,VALID,917.565,VALID,0,VALID,98.2658,VALID,-0.0849042,VALID,18.0921,VALID,112,VALID,1.07924,
2001-07-17, 02:21:00,VALID,917.569,VALID,0,VALID,98.117,VALID,-0.0849042,VALID,18.0953,VALID,99,VALID,0.960938,
2001-07-17, 02:22:00,VALID,917.556,VALID,0,VALID,97.8525,VALID,-0.0849042,VALID,18.066,VALID,88,VALID,1.11174,
2001-07-17, 02:23:00,VALID,917.569,VALID,0,VALID,97.8144,VALID,-0.0679233,VALID,18.0464,VALID,96,VALID,1.35807,
2001-07-17, 02:24:00,VALID,917.555,VALID,0,VALID,97.9008,VALID,-0.101885,VALID,18.0762,VALID,97,VALID,1.53886,
2001-07-17, 02:25:00,VALID,917.551,VALID,0,VALID,97.6719,VALID,-0.0849042,VALID,18.0725,VALID,110,VALID,1.1238,
2001-07-17, 02:26:00,VALID,917.555,VALID,0,VALID,97.6198,VALID,-0.0849042,VALID,18.0626,VALID,122,VALID,1.02969,
2001-07-17, 02:27:00,VALID,917.553,VALID,0,VALID,97.6338,VALID,-0.101885,VALID,18.066,VALID,117,VALID,0.792411,
2001-07-17, 02:28:00,VALID,917.543,VALID,0,VALID,97.5461,VALID,-0.101885,VALID,18.0596,VALID,114,VALID,0.816512,
2001-07-17, 02:29:00,VALID,917.546,VALID,0,VALID,97.6287,VALID,-0.0679233,VALID,18.0598,VALID,114,VALID,1.17348,
2001-07-17, 02:30:00,VALID,917.545,VALID,0,VALID,97.6719,VALID,-0.0849042,VALID,18.0492,VALID,117,VALID,0.958482,
2001-07-17, 02:31:00,VALID,917.523,VALID,0,VALID,97.7381,VALID,-0.0509425,VALID,18.0658,VALID,117,VALID,1.08634,
2001-07-17, 02:32:00,VALID,917.503,VALID,0,VALID,97.5524,VALID,-0.0679233,VALID,18.066,VALID,126,VALID,0.728463,
2001-07-17, 02:33:00,VALID,917.466,VALID,0,VALID,97.5092,VALID,-0.0849042,VALID,18.0368,VALID,117,VALID,0.619243,
2001-07-17, 02:34:00,VALID,917.43,VALID,0,VALID,97.574,VALID,-0.0849042,VALID,18.037,VALID,124,VALID,0.755134,
2001-07-17, 02:35:00,VALID,917.41,VALID,0,VALID,97.6109,VALID,-0.0849042,VALID,18.0347,VALID,131,VALID,0.667067,
2001-07-17, 02:36:00,VALID,917.398,VALID,0,VALID,97.822,VALID,-0.118866,VALID,18.0245,VALID,141,VALID,0.88447,
2001-07-17, 02:37:00,VALID,917.383,VALID,0,VALID,98.0827,VALID,-0.101885,VALID,18.076,VALID,140,VALID,1.16819,
2001-07-17, 02:38:00,VALID,917.399,VALID,0,VALID,98.173,VALID,-0.0679233,VALID,18.1082,VALID,140,VALID,1.31743,
2001-07-17, 02:39:00,VALID,917.415,VALID,0,VALID,98.1374,VALID,-0.0679233,VALID,18.1564,VALID,141,VALID,1.24319,
2001-07-17, 02:40:00,VALID,917.42,VALID,0,VALID,97.9797,VALID,-0.101885,VALID,18.1959,VALID,142,VALID,1.37793,
2001-07-17, 02:41:00,VALID,917.413,VALID,0,VALID,97.8894,VALID,-0.0849042,VALID,18.2017,VALID,143,VALID,1.42679,
2001-07-17, 02:42:00,VALID,917.386,VALID,0,VALID,97.794,VALID,-0.0849042,VALID,18.2312,VALID,143,VALID,1.32538,
2001-07-17, 02:43:00,VALID,917.363,VALID,0,VALID,97.6732,VALID,-0.0849042,VALID,18.2406,VALID,133,VALID,0.873162,
2001-07-17, 02:44:00,VALID,917.331,VALID,0,VALID,97.3477,VALID,-0.0679233,VALID,18.2213,VALID,118,VALID,0.610268,
2001-07-17, 02:45:00,VALID,917.294,VALID,0,VALID,97.3896,VALID,-0.101885,VALID,18.195,VALID,116,VALID,0.916466,
2001-07-17, 02:46:00,VALID,917.272,VALID,0,VALID,97.6999,VALID,-0.101885,VALID,18.2247,VALID,113,VALID,1.38218,
2001-07-17, 02:47:00,VALID,917.26,VALID,0,VALID,97.8576,VALID,-0.0679233,VALID,18.2729,VALID,111,VALID,1.18771,
2001-07-17, 02:48:00,VALID,917.268,VALID,0,VALID,97.7355,VALID,-0.101885,VALID,18.3017,VALID,116,VALID,0.883036,
2001-07-17, 02:49:00,VALID,917.289,VALID,0,VALID,97.3909,VALID,-0.101885,VALID,18.2757,VALID,144,VALID,1.08373,
2001-07-17, 02:50:00,VALID,917.309,VALID,0,VALID,97.5626,VALID,-0.101885,VALID,18.2759,VALID,143,VALID,1.26397,
2001-07-17, 02:51:00,VALID,917.319,VALID,0,VALID,97.4888,VALID,-0.0679233,VALID,18.2826,VALID,141,VALID,1.10872,
2001-07-17, 02:52:00,VALID,917.328,VALID,0,VALID,97.485,VALID,-0.0849042,VALID,18.2695,VALID,143,VALID,1.20662,
2001-07-17, 02:53:00,VALID,917.326,VALID,0,VALID,97.527,VALID,-0.101885,VALID,18.2697,VALID,143,VALID,1.27604,
2001-07-17, 02:54:00,VALID,917.331,VALID,0,VALID,97.5308,VALID,-0.0849042,VALID,18.2432,VALID,143,VALID,1.06855,
2001-07-17, 02:55:00,VALID,917.308,VALID,0,VALID,97.6007,VALID,-0.0849042,VALID,18.2473,VALID,140,VALID,1.07455,
2001-07-17, 02:56:00,VALID,917.297,VALID,0,VALID,97.6808,VALID,-0.101885,VALID,18.2303,VALID,145,VALID,1.10705,
2001-07-17, 02:57:00,VALID,917.271,VALID,0,VALID,97.7419,VALID,-0.0849042,VALID,18.2399,VALID,142,VALID,0.948529,
2001-07-17, 02:58:00,VALID,917.238,VALID,0,VALID,97.6872,VALID,0,VALID,18.2261,VALID,120,VALID,0.640848,
2001-07-17, 02:59:00,VALID,917.229,VALID,0,VALID,97.864,VALID,0,VALID,18.2231,VALID,113,VALID,0.55028,
2001-07-17, 03:00:00,VALID,917.224,VALID,0,VALID,97.9606,VALID,-0.0169808,VALID,18.239,VALID,110,VALID,0.549198,
2001-07-17, 03:01:00,VALID,917.231,VALID,0,VALID,97.9949,VALID,0,VALID,18.2552,VALID,120,VALID,0.430921,
2001-07-17, 03:02:00,VALID,917.263,VALID,0,VALID,98.295,VALID,-0.0169808,VALID,18.3004,VALID,118,VALID,0.377232,
2001-07-17, 03:03:00,VALID,917.278,VALID,0,VALID,98.3103,VALID,0,VALID,18.346,VALID,124,VALID,0.556691,
2001-07-17, 03:04:00,VALID,917.286,VALID,0,VALID,98.248,VALID,0,VALID,18.3781,VALID,145,VALID,0.448864,
2001-07-17, 03:05:00,VALID,917.303,VALID,0,VALID,97.9708,VALID,-0.0339617,VALID,18.3495,VALID,196,VALID,0.352431,
2001-07-17, 03:06:00,VALID,917.3,VALID,0,VALID,97.6122,VALID,0,VALID,18.2713,VALID,191,VALID,0.261924,
2001-07-17, 03:07:00,VALID,917.271,VALID,0,VALID,97.4329,VALID,0,VALID,18.2065,VALID,184,VALID,0.388421,
2001-07-17, 03:08:00,VALID,917.256,VALID,0,VALID,97.3566,VALID,-0.0169808,VALID,18.1786,VALID,159,VALID,0.390039,
2001-07-17, 03:09:00,VALID,917.227,VALID,0,VALID,97.2282,VALID,-0.0169808,VALID,18.1166,VALID,159,VALID,0.339509,
2001-07-17, 03:10:00,VALID,917.219,VALID,0,VALID,97.1989,VALID,0,VALID,18.0647,VALID,159,VALID,0.27386,
2001-07-17, 03:11:00,VALID,917.22,VALID,0,VALID,97.2193,VALID,0,VALID,18.0262,VALID,159,VALID,0,
2001-07-17, 03:12:00,VALID,917.204,VALID,0,VALID,97.4927,VALID,0,VALID,18.01,VALID,159,VALID,0,
2001-07-17, 03:13:00,VALID,917.213,VALID,0,VALID,97.5753,VALID,0,VALID,18.0066,VALID,159,VALID,0,
2001-07-17, 03:14:00,VALID,917.208,VALID,0,VALID,97.5359,VALID,-0.0169808,VALID,17.9844,VALID,159,VALID,0,
2001-07-17, 03:15:00,VALID,917.206,VALID,0,VALID,97.5143,VALID,-0.0169808,VALID,17.9683,VALID,159,VALID,0,
2001-07-17, 03:16:00,VALID,917.195,VALID,0,VALID,97.3731,VALID,0,VALID,17.9134,VALID,159,VALID,0,
2001-07-17, 03:17:00,VALID,917.173,VALID,0,VALID,97.2015,VALID,0,VALID,17.8361,VALID,67,VALID,0,
2001-07-17, 03:18:00,VALID,917.153,VALID,0,VALID,97.3121,VALID,0,VALID,17.7773,VALID,29,VALID,0,
2001-07-17, 03:19:00,VALID,917.143,VALID,0,VALID,97.4647,VALID,0.0169808,VALID,17.7421,VALID,29,VALID,0,
2001-07-17, 03:20:00,VALID,917.134,VALID,0,VALID,97.3935,VALID,0.0169808,VALID,17.6775,VALID,29,VALID,0,
2001-07-17, 03:21:00,VALID,917.132,VALID,0,VALID,97.6363,VALID,0,VALID,17.6422,VALID,29,VALID,0,
2001-07-17, 03:22:00,VALID,917.118,VALID,0,VALID,97.8411,VALID,-0.0169808,VALID,17.6487,VALID,30,VALID,0,
2001-07-17, 03:23:00,VALID,917.098,VALID,0,VALID,97.5041,VALID,-0.0169808,VALID,17.5518,VALID,31,VALID,0,
2001-07-17, 03:24:00,VALID,917.088,VALID,0,VALID,97.6694,VALID,-0.0169808,VALID,17.4804,VALID,31,VALID,0.117821,
2001-07-17, 03:25:00,VALID,917.069,VALID,0,VALID,98.1704,VALID,-0.0169808,VALID,17.5195,VALID,31,VALID,1.00666,
2001-07-17, 03:26:00,VALID,917.046,VALID,0,VALID,98.3955,VALID,-0.0509425,VALID,17.5484,VALID,37,VALID,0.747768,
2001-07-17, 03:27:00,VALID,917.05,VALID,0,VALID,98.5735,VALID,-0.0169808,VALID,17.5839,VALID,53,VALID,0.654247,
2001-07-17, 03:28:00,VALID,917.03,VALID,0,VALID,98.6905,VALID,0,VALID,17.6265,VALID,65,VALID,0.760346,
2001-07-17, 03:29:00,VALID,917.01,VALID,0,VALID,98.8812,VALID,-0.0169808,VALID,17.6844,VALID,73,VALID,0.936061,
2001-07-17, 03:30:00,VALID,917.02,VALID,0,VALID,98.9474,VALID,-0.0169808,VALID,17.772,VALID,77,VALID,0.863839,
2001-07-17, 03:31:00,VALID,917.031,VALID,0,VALID,98.8393,VALID,0,VALID,17.7686,VALID,81,VALID,0.677484,
2001-07-17, 03:32:00,VALID,917.031,VALID,0,VALID,98.6078,VALID,0,VALID,17.7102,VALID,93,VALID,0.81392,
2001-07-17, 03:33:00,VALID,917.051,VALID,0,VALID,98.5099,VALID,0,VALID,17.642,VALID,91,VALID,0.638889,
2001-07-17, 03:34:00,VALID,917.053,VALID,0,VALID,98.5799,VALID,0,VALID,17.6067,VALID,87,VALID,0.333882,
2001-07-17, 03:35:00,VALID,917.06,VALID,0,VALID,98.5366,VALID,0,VALID,17.6007,VALID,86,VALID,0.165465,